Year,Month,Day,Hour,Minute,Value (Times are PST for temperature in C)
2008,12,17,00,00,1.70
2008,12,17,00,01,1.70
2008,12,17,00,02,1.70
2008,12,17,00,03,1.70
2008,12,17,00,04,1.80
2008,12,17,00,05,1.80
2008,12,17,00,06,1.80
2008,12,17,00,07,1.80
2008,12,17,00,08,1.80
2008,12,17,00,09,1.90
2008,12,17,00,10,1.90
2008,12,17,00,11,1.90
2008,12,17,00,12,2.00
2008,12,17,00,13,2.00
2008,12,17,00,14,2.10
2008,12,17,00,15,2.10
2008,12,17,00,16,2.10
2008,12,17,00,17,2.20
2008,12,17,00,18,2.20
2008,12,17,00,19,2.20
2008,12,17,00,20,2.20
2008,12,17,00,21,2.20
2008,12,17,00,22,2.20
2008,12,17,00,23,2.20
2008,12,17,00,24,2.20
2008,12,17,00,25,2.20
2008,12,17,00,26,2.10
2008,12,17,00,27,2.10
2008,12,17,00,28,2.10
2008,12,17,00,29,2.00
2008,12,17,00,30,2.00
2008,12,17,00,31,1.90
2008,12,17,00,32,1.90
2008,12,17,00,33,1.90
2008,12,17,00,34,1.80
2008,12,17,00,35,1.80
2008,12,17,00,36,1.80
2008,12,17,00,37,1.80
2008,12,17,00,38,1.80
2008,12,17,00,39,1.80
2008,12,17,00,40,1.70
2008,12,17,00,41,1.70
2008,12,17,00,42,1.70
2008,12,17,00,43,1.70
2008,12,17,00,44,1.70
2008,12,17,00,45,1.70
2008,12,17,00,46,1.70
2008,12,17,00,47,1.70
2008,12,17,00,48,1.70
2008,12,17,00,49,1.70
2008,12,17,00,50,1.70
2008,12,17,00,51,1.70
2008,12,17,00,52,1.70
2008,12,17,00,53,1.70
2008,12,17,00,54,1.70
2008,12,17,00,55,1.80
2008,12,17,00,56,1.80
2008,12,17,00,57,1.80
2008,12,17,00,58,1.80
2008,12,17,00,59,1.80
2008,12,17,01,00,1.80
2008,12,17,01,01,1.80
2008,12,17,01,02,1.80
2008,12,17,01,03,1.80
2008,12,17,01,04,1.80
2008,12,17,01,05,1.80
2008,12,17,01,06,1.80
2008,12,17,01,07,1.80
2008,12,17,01,08,1.80
2008,12,17,01,09,1.80
2008,12,17,01,10,1.80
2008,12,17,01,11,1.80
2008,12,17,01,12,1.80
2008,12,17,01,13,1.80
2008,12,17,01,14,1.80
2008,12,17,01,15,1.80
2008,12,17,01,16,1.80
2008,12,17,01,17,1.80
2008,12,17,01,18,1.90
2008,12,17,01,19,1.90
2008,12,17,01,20,1.90
2008,12,17,01,21,1.90
2008,12,17,01,22,1.90
2008,12,17,01,23,1.90
2008,12,17,01,24,1.90
2008,12,17,01,25,1.90
2008,12,17,01,26,1.90
2008,12,17,01,27,1.90
2008,12,17,01,28,2.00
2008,12,17,01,29,2.00
2008,12,17,01,30,2.00
2008,12,17,01,31,2.00
2008,12,17,01,32,2.00
2008,12,17,01,33,1.90
2008,12,17,01,34,1.90
2008,12,17,01,35,1.90
2008,12,17,01,36,1.90
2008,12,17,01,37,1.90
2008,12,17,01,38,1.90
2008,12,17,01,39,1.90
2008,12,17,01,40,1.90
2008,12,17,01,41,1.90
2008,12,17,01,42,1.90
2008,12,17,01,43,1.90
2008,12,17,01,44,1.90
2008,12,17,01,45,1.90
2008,12,17,01,46,1.90
2008,12,17,01,47,1.90
2008,12,17,01,48,1.90
2008,12,17,01,49,1.90
2008,12,17,01,50,1.80
2008,12,17,01,51,1.80
2008,12,17,01,52,1.80
2008,12,17,01,53,1.80
2008,12,17,01,54,1.80
2008,12,17,01,55,1.80
2008,12,17,01,56,1.80
2008,12,17,01,57,1.80
2008,12,17,01,58,1.80
2008,12,17,01,59,1.80
2008,12,17,02,00,1.80
2008,12,17,02,01,1.80
2008,12,17,02,02,1.80
2008,12,17,02,03,1.80
2008,12,17,02,04,1.80
2008,12,17,02,05,1.80
2008,12,17,02,06,1.80
2008,12,17,02,07,1.80
2008,12,17,02,08,1.80
2008,12,17,02,09,1.80
2008,12,17,02,10,1.80
2008,12,17,02,11,1.80
2008,12,17,02,12,1.80
2008,12,17,02,13,1.80
2008,12,17,02,14,1.80
2008,12,17,02,15,1.80
2008,12,17,02,16,1.80
2008,12,17,02,17,1.80
2008,12,17,02,18,1.80
2008,12,17,02,19,1.80
2008,12,17,02,20,1.80
2008,12,17,02,21,1.80
2008,12,17,02,22,1.80
2008,12,17,02,23,1.80
2008,12,17,02,24,1.80
2008,12,17,02,25,1.80
2008,12,17,02,26,1.80
2008,12,17,02,27,1.80
2008,12,17,02,28,1.80
2008,12,17,02,29,1.80
2008,12,17,02,30,1.80
2008,12,17,02,31,1.80
2008,12,17,02,32,1.70
2008,12,17,02,33,1.70
2008,12,17,02,34,1.70
2008,12,17,02,35,1.70
2008,12,17,02,36,1.70
2008,12,17,02,37,1.60
2008,12,17,02,38,1.60
2008,12,17,02,39,1.60
2008,12,17,02,40,1.60
2008,12,17,02,41,1.60
2008,12,17,02,42,1.60
2008,12,17,02,43,1.60
2008,12,17,02,44,1.60
2008,12,17,02,45,1.60
2008,12,17,02,46,1.70
2008,12,17,02,47,1.70
2008,12,17,02,48,1.70
2008,12,17,02,49,1.70
2008,12,17,02,50,1.70
2008,12,17,02,51,1.70
2008,12,17,02,52,1.70
2008,12,17,02,53,1.70
2008,12,17,02,54,1.70
2008,12,17,02,55,1.70
2008,12,17,02,56,1.60
2008,12,17,02,57,1.60
2008,12,17,02,58,1.60
2008,12,17,02,59,1.60
2008,12,17,03,00,1.60
2008,12,17,03,01,1.50
2008,12,17,03,02,1.50
2008,12,17,03,03,1.50
2008,12,17,03,04,1.50
2008,12,17,03,05,1.40
2008,12,17,04,44,1.00
2008,12,17,04,45,1.00
2008,12,17,04,46,1.00
2008,12,17,04,47,1.00
2008,12,17,04,48,1.00
2008,12,17,04,49,1.00
2008,12,17,04,50,1.00
2008,12,17,04,51,1.00
2008,12,17,04,52,1.00
2008,12,17,04,53,1.00
2008,12,17,04,54,1.00
2008,12,17,04,55,1.00
2008,12,17,04,56,1.10
2008,12,17,04,57,1.10
2008,12,17,04,58,1.10
2008,12,17,04,59,1.10
2008,12,17,05,00,1.10
2008,12,17,05,01,1.10
2008,12,17,05,02,1.10
2008,12,17,05,03,1.10
2008,12,17,05,04,1.10
2008,12,17,05,05,1.10
2008,12,17,05,06,1.10
2008,12,17,05,07,1.10
2008,12,17,05,08,1.20
2008,12,17,05,09,1.20
2008,12,17,05,10,1.20
2008,12,17,05,11,1.20
2008,12,17,05,12,1.20
2008,12,17,05,13,1.20
2008,12,17,05,14,1.20
2008,12,17,05,15,1.20
2008,12,17,05,16,1.30
2008,12,17,05,17,1.30
2008,12,17,05,18,1.30
2008,12,17,05,19,1.30
2008,12,17,05,20,1.30
2008,12,17,05,21,1.30
2008,12,17,05,22,1.20
2008,12,17,05,23,1.30
2008,12,17,05,24,1.30
2008,12,17,05,25,1.30
2008,12,17,05,26,1.30
2008,12,17,05,27,1.20
2008,12,17,05,28,1.20
2008,12,17,05,29,1.30
2008,12,17,05,30,1.30
2008,12,17,05,31,1.30
2008,12,17,05,32,1.30
2008,12,17,05,33,1.30
2008,12,17,05,34,1.30
2008,12,17,05,35,1.30
2008,12,17,05,36,1.30
2008,12,17,05,37,1.30
2008,12,17,05,38,1.30
2008,12,17,05,39,1.30
2008,12,17,05,40,1.30
2008,12,17,05,41,1.30
2008,12,17,05,42,1.30
2008,12,17,05,43,1.30
2008,12,17,05,44,1.30
2008,12,17,05,45,1.30
2008,12,17,05,46,1.20
2008,12,17,05,47,1.20
2008,12,17,05,48,1.20
2008,12,17,05,49,1.20
2008,12,17,05,50,1.20
2008,12,17,05,51,1.20
2008,12,17,05,52,1.20
2008,12,17,05,53,1.20
2008,12,17,05,54,1.20
2008,12,17,05,55,1.20
2008,12,17,05,56,1.20
2008,12,17,05,57,1.20
2008,12,17,05,58,1.20
2008,12,17,05,59,1.20
2008,12,17,06,00,1.20
2008,12,17,06,01,1.20
2008,12,17,06,02,1.20
2008,12,17,06,03,1.20
2008,12,17,06,04,1.20
2008,12,17,06,05,1.20
2008,12,17,06,06,1.20
2008,12,17,06,07,1.20
2008,12,17,06,08,1.20
2008,12,17,06,09,1.20
2008,12,17,06,10,1.20
2008,12,17,06,11,1.20
2008,12,17,06,12,1.20
2008,12,17,06,13,1.20
2008,12,17,06,14,1.20
2008,12,17,06,15,1.20
2008,12,17,06,16,1.20
2008,12,17,06,17,1.30
2008,12,17,06,18,1.30
2008,12,17,06,19,1.30
2008,12,17,06,20,1.30
2008,12,17,06,21,1.30
2008,12,17,06,22,1.30
2008,12,17,06,23,1.30
2008,12,17,06,24,1.30
2008,12,17,06,25,1.30
2008,12,17,06,26,1.30
2008,12,17,06,27,1.30
2008,12,17,06,28,1.30
2008,12,17,06,29,1.20
2008,12,17,06,30,1.20
2008,12,17,06,31,1.20
2008,12,17,06,32,1.20
2008,12,17,06,33,1.20
2008,12,17,06,34,1.20
2008,12,17,06,35,1.20
2008,12,17,06,36,1.20
2008,12,17,06,37,1.20
2008,12,17,06,38,1.20
2008,12,17,06,39,1.20
2008,12,17,06,40,1.20
2008,12,17,06,41,1.20
2008,12,17,06,42,1.20
2008,12,17,06,43,1.20
2008,12,17,06,44,1.20
2008,12,17,06,45,1.20
2008,12,17,06,46,1.30
2008,12,17,06,47,1.30
2008,12,17,06,48,1.30
2008,12,17,06,49,1.30
2008,12,17,06,50,1.30
2008,12,17,06,51,1.40
2008,12,17,06,52,1.40
2008,12,17,06,53,1.40
2008,12,17,06,54,1.50
2008,12,17,06,55,1.50
2008,12,17,06,56,1.50
2008,12,17,06,57,1.60
2008,12,17,06,58,1.60
2008,12,17,06,59,1.60
2008,12,17,07,00,1.60
2008,12,17,07,01,1.60
2008,12,17,07,02,1.60
2008,12,17,07,03,1.60
2008,12,17,07,04,1.60
2008,12,17,07,05,1.50
2008,12,17,07,06,1.50
2008,12,17,07,07,1.50
2008,12,17,07,08,1.50
2008,12,17,07,09,1.50
2008,12,17,07,10,1.40
2008,12,17,07,11,1.40
2008,12,17,07,12,1.40
2008,12,17,07,13,1.30
2008,12,17,07,14,1.30
2008,12,17,07,15,1.30
2008,12,17,07,16,1.30
2008,12,17,07,17,1.30
2008,12,17,07,18,1.30
2008,12,17,07,19,1.30
2008,12,17,07,20,1.30
2008,12,17,07,21,1.40
2008,12,17,07,22,1.40
2008,12,17,07,23,1.40
2008,12,17,07,24,1.40
2008,12,17,07,25,1.50
2008,12,17,07,26,1.50
2008,12,17,07,27,1.50
2008,12,17,07,28,1.40
2008,12,17,07,29,1.40
2008,12,17,07,30,1.40
2008,12,17,07,31,1.40
2008,12,17,07,32,1.40
2008,12,17,07,33,1.40
2008,12,17,07,34,1.40
2008,12,17,07,35,1.30
2008,12,17,07,36,1.30
2008,12,17,07,37,1.30
2008,12,17,07,38,1.30
2008,12,17,07,39,1.30
2008,12,17,07,40,1.30
2008,12,17,07,41,1.40
2008,12,17,07,42,1.40
2008,12,17,07,43,1.40
2008,12,17,07,44,1.40
2008,12,17,07,45,1.40
2008,12,17,07,46,1.40
2008,12,17,07,47,1.40
2008,12,17,07,48,1.40
2008,12,17,07,49,1.40
2008,12,17,07,50,1.40
2008,12,17,07,51,1.40
2008,12,17,07,52,1.40
2008,12,17,07,53,1.40
2008,12,17,07,54,1.40
2008,12,17,07,55,1.40
2008,12,17,07,56,1.40
2008,12,17,07,57,1.40
2008,12,17,07,58,1.40
2008,12,17,07,59,1.40
2008,12,17,08,00,1.40
2008,12,17,08,01,1.40
2008,12,17,08,02,1.40
2008,12,17,08,03,1.40
2008,12,17,08,04,1.40
2008,12,17,08,05,1.40
2008,12,17,08,06,1.40
2008,12,17,08,07,1.40
2008,12,17,08,08,1.40
2008,12,17,08,09,1.40
2008,12,17,08,10,1.40
2008,12,17,08,11,1.40
2008,12,17,08,12,1.40
2008,12,17,08,13,1.40
2008,12,17,08,14,1.40
2008,12,17,08,15,1.40
2008,12,17,08,16,1.40
2008,12,17,08,17,1.40
2008,12,17,08,18,1.40
2008,12,17,08,19,1.40
2008,12,17,08,20,1.40
2008,12,17,08,21,1.40
2008,12,17,08,22,1.40
2008,12,17,08,23,1.40
2008,12,17,08,24,1.40
2008,12,17,08,25,1.40
2008,12,17,08,26,1.40
2008,12,17,08,27,1.40
2008,12,17,08,28,1.40
2008,12,17,08,29,1.40
2008,12,17,08,30,1.40
2008,12,17,08,31,1.40
2008,12,17,08,32,1.40
2008,12,17,08,33,1.40
2008,12,17,08,34,1.40
2008,12,17,08,35,1.50
2008,12,17,08,36,1.50
2008,12,17,08,37,1.50
2008,12,17,08,38,1.50
2008,12,17,08,39,1.50
2008,12,17,08,40,1.50
2008,12,17,08,41,1.50
2008,12,17,08,42,1.60
2008,12,17,08,43,1.60
2008,12,17,08,44,1.60
2008,12,17,08,45,1.60
2008,12,17,08,46,1.60
2008,12,17,08,47,1.60
2008,12,17,08,48,1.70
2008,12,17,08,49,1.70
2008,12,17,08,50,1.70
2008,12,17,08,51,1.80
2008,12,17,08,52,1.80
2008,12,17,08,53,1.90
2008,12,17,08,54,1.90
2008,12,17,08,55,2.00
2008,12,17,08,56,2.10
2008,12,17,08,57,2.10
2008,12,17,08,58,2.20
2008,12,17,08,59,2.20
2008,12,17,09,00,2.20
2008,12,17,09,01,2.20
2008,12,17,09,02,2.20
2008,12,17,09,03,2.20
2008,12,17,09,04,2.30
2008,12,17,09,05,2.30
2008,12,17,09,06,2.30
2008,12,17,09,07,2.30
2008,12,17,09,08,2.30
2008,12,17,09,09,2.30
2008,12,17,09,10,2.20
2008,12,17,09,11,2.20
2008,12,17,09,12,2.20
2008,12,17,09,13,2.20
2008,12,17,09,14,2.20
2008,12,17,09,15,2.10
2008,12,17,09,16,2.10
2008,12,17,09,17,2.00
2008,12,17,09,18,2.00
2008,12,17,09,19,1.90
2008,12,17,09,20,1.80
2008,12,17,09,45,1.60
2008,12,17,09,46,1.60
2008,12,17,09,47,1.70
2008,12,17,09,48,1.70
2008,12,17,09,49,1.70
2008,12,17,09,50,1.70
2008,12,17,09,51,1.70
2008,12,17,09,52,1.70
2008,12,17,09,53,1.70
2008,12,17,09,54,1.70
2008,12,17,09,55,1.70
2008,12,17,09,56,1.70
2008,12,17,09,57,1.70
2008,12,17,09,58,1.70
2008,12,17,09,59,1.70
2008,12,17,10,00,1.70
2008,12,17,10,01,1.70
2008,12,17,11,00,2.10
2008,12,17,11,01,2.10
2008,12,17,11,02,2.10
2008,12,17,11,03,2.10
2008,12,17,11,04,2.10
2008,12,17,11,05,2.10
2008,12,17,11,06,2.10
2008,12,17,11,07,2.10
2008,12,17,11,08,2.10
2008,12,17,11,09,2.10
2008,12,17,11,10,2.10
2008,12,17,11,11,2.10
2008,12,17,11,12,2.10
2008,12,17,11,13,2.10
2008,12,17,11,14,2.20
2008,12,17,11,15,2.20
2008,12,17,11,16,2.20
2008,12,17,11,17,2.20
2008,12,17,11,18,2.20
2008,12,17,11,19,2.20
2008,12,17,11,20,2.20
2008,12,17,11,21,2.20
2008,12,17,11,22,2.20
2008,12,17,11,23,2.30
2008,12,17,11,24,2.30
2008,12,17,11,25,2.30
2008,12,17,11,26,2.30
2008,12,17,11,27,2.30
2008,12,17,11,28,2.30
2008,12,17,11,29,2.20
2008,12,17,11,30,2.20
2008,12,17,11,31,2.30
2008,12,17,11,32,2.30
2008,12,17,11,33,2.30
2008,12,17,11,34,2.30
2008,12,17,11,35,2.30
2008,12,17,11,36,2.30
2008,12,17,11,37,2.30
2008,12,17,11,38,2.30
2008,12,17,11,39,2.30
2008,12,17,11,40,2.30
2008,12,17,11,41,2.30
2008,12,17,11,42,2.30
2008,12,17,11,43,2.30
2008,12,17,11,44,2.30
2008,12,17,11,45,2.30
2008,12,17,11,46,2.30
2008,12,17,11,47,2.30
2008,12,17,11,48,2.30
2008,12,17,11,49,2.30
2008,12,17,11,50,2.30
2008,12,17,11,51,2.40
2008,12,17,11,52,2.40
2008,12,17,11,53,2.40
2008,12,17,11,54,2.40
2008,12,17,11,55,2.40
2008,12,17,11,56,2.40
2008,12,17,11,57,2.40
2008,12,17,11,58,2.40
2008,12,17,11,59,2.40
2008,12,17,12,00,2.40
2008,12,17,12,01,2.40
2008,12,17,12,02,2.40
2008,12,17,12,03,2.40
2008,12,17,12,04,2.40
2008,12,17,12,05,2.40
2008,12,17,12,06,2.40
2008,12,17,12,07,2.40
2008,12,17,12,08,2.40
2008,12,17,12,09,2.40
2008,12,17,12,10,2.40
2008,12,17,12,11,2.40
2008,12,17,12,12,2.30
2008,12,17,12,13,2.30
2008,12,17,12,14,2.30
2008,12,17,12,15,2.30
2008,12,17,12,16,2.30
2008,12,17,12,17,2.30
2008,12,17,12,18,2.20
2008,12,17,12,19,2.20
2008,12,17,12,20,2.20
2008,12,17,12,21,2.20
2008,12,17,12,22,2.20
2008,12,17,12,23,2.20
2008,12,17,12,24,2.20
2008,12,17,12,25,2.20
2008,12,17,12,26,2.20
2008,12,17,12,27,2.20
2008,12,17,12,28,2.20
2008,12,17,12,29,2.20
2008,12,17,12,30,2.20
2008,12,17,12,31,2.20
2008,12,17,12,32,2.20
2008,12,17,12,33,2.20
2008,12,17,12,34,2.20
2008,12,17,12,35,2.20
2008,12,17,12,36,2.20
2008,12,17,12,37,2.20
2008,12,17,12,38,2.20
2008,12,17,12,39,2.20
2008,12,17,12,40,2.20
2008,12,17,12,41,2.20
2008,12,17,12,42,2.20
2008,12,17,12,43,2.20
2008,12,17,12,44,2.20
2008,12,17,12,45,2.20
2008,12,17,12,46,2.20
2008,12,17,13,22,2.30
2008,12,17,13,23,2.30
2008,12,17,13,24,2.40
2008,12,17,13,25,2.40
2008,12,17,13,26,2.50
2008,12,17,13,27,2.50
2008,12,17,13,28,2.50
2008,12,17,13,29,2.50
2008,12,17,13,30,2.50
2008,12,17,13,31,2.40
2008,12,17,13,32,2.40
2008,12,17,13,33,2.30
2008,12,17,13,34,2.30
2008,12,17,13,35,2.20
2008,12,17,13,36,2.20
2008,12,17,13,37,2.20
2008,12,17,13,38,2.20
2008,12,17,13,39,2.20
2008,12,17,13,40,2.10
2008,12,17,13,41,2.10
2008,12,17,13,42,2.10
2008,12,17,13,43,2.10
2008,12,17,13,44,2.10
2008,12,17,13,45,2.00
2008,12,17,13,46,2.00
2008,12,17,13,47,2.00
2008,12,17,13,48,2.00
2008,12,17,13,49,2.00
2008,12,17,13,50,2.00
2008,12,17,13,51,2.00
2008,12,17,13,52,2.00
2008,12,17,13,53,2.00
2008,12,17,13,54,2.00
2008,12,17,13,55,2.00
2008,12,17,13,56,1.90
2008,12,17,13,57,1.90
2008,12,17,13,58,1.90
2008,12,17,13,59,1.90
2008,12,17,14,00,1.90
2008,12,17,14,01,1.90
2008,12,17,14,02,1.90
2008,12,17,14,03,1.90
2008,12,17,14,04,1.90
2008,12,17,14,05,1.90
2008,12,17,14,06,1.90
2008,12,17,14,07,1.90
2008,12,17,14,08,1.90
2008,12,17,14,09,1.90
2008,12,17,14,10,1.90
2008,12,17,14,11,1.90
2008,12,17,14,12,1.90
2008,12,17,14,13,1.80
2008,12,17,14,14,1.80
2008,12,17,14,15,1.80
2008,12,17,14,16,1.80
2008,12,17,14,17,1.70
2008,12,17,14,18,1.70
2008,12,17,14,19,1.70
2008,12,17,14,20,1.70
2008,12,17,14,21,1.70
2008,12,17,14,22,1.70
2008,12,17,14,23,1.70
2008,12,17,14,24,1.70
2008,12,17,14,25,1.70
2008,12,17,14,26,1.70
2008,12,17,14,27,1.70
2008,12,17,14,28,1.70
2008,12,17,14,29,1.70
2008,12,17,14,30,1.70
2008,12,17,14,31,1.70
2008,12,17,14,32,1.70
2008,12,17,14,33,1.70
2008,12,17,14,34,1.70
2008,12,17,14,35,1.70
2008,12,17,14,36,1.70
2008,12,17,14,37,1.70
2008,12,17,14,38,1.70
2008,12,17,14,39,1.60
2008,12,17,14,40,1.60
2008,12,17,14,41,1.60
2008,12,17,14,42,1.60
2008,12,17,14,43,1.50
2008,12,17,14,44,1.50
2008,12,17,14,45,1.50
2008,12,17,14,46,1.50
2008,12,17,14,47,1.50
2008,12,17,14,48,1.50
2008,12,17,14,49,1.50
2008,12,17,14,50,1.50
2008,12,17,14,51,1.40
2008,12,17,14,52,1.40
2008,12,17,14,53,1.50
2008,12,17,14,54,1.50
2008,12,17,14,55,1.50
2008,12,17,14,56,1.50
2008,12,17,14,57,1.50
2008,12,17,14,58,1.50
2008,12,17,14,59,1.40
2008,12,17,15,00,1.40
2008,12,17,15,01,1.30
2008,12,17,15,02,1.30
2008,12,17,15,03,1.30
2008,12,17,15,04,1.30
2008,12,17,15,05,1.30
2008,12,17,15,06,1.30
2008,12,17,15,07,1.30
2008,12,17,15,08,1.30
2008,12,17,15,09,1.30
2008,12,17,15,10,1.20
2008,12,17,15,11,1.10
2008,12,17,15,12,1.00
2008,12,17,15,13,0.90
2008,12,17,15,14,0.80
2008,12,17,15,15,0.80
2008,12,17,15,16,0.70
2008,12,17,15,17,0.70
2008,12,17,15,18,0.70
2008,12,17,15,19,0.60
2008,12,17,15,20,0.60
2008,12,17,15,21,0.50
2008,12,17,15,22,0.50
2008,12,17,15,23,0.50
2008,12,17,15,24,0.40
2008,12,17,15,25,0.40
2008,12,17,15,26,0.40
2008,12,17,15,27,0.40
2008,12,17,15,28,0.40
2008,12,17,15,29,0.50
2008,12,17,15,30,0.50
2008,12,17,15,31,0.50
2008,12,17,15,32,0.40
2008,12,17,15,33,0.40
2008,12,17,15,34,0.40
2008,12,17,15,35,0.40
2008,12,17,15,36,0.40
2008,12,17,15,37,0.40
2008,12,17,15,38,0.40
2008,12,17,15,39,0.40
2008,12,17,15,40,0.40
2008,12,17,15,41,0.40
2008,12,17,15,42,0.40
2008,12,17,15,43,0.40
2008,12,17,15,44,0.40
2008,12,17,15,45,0.40
2008,12,17,15,46,0.40
2008,12,17,15,47,0.40
2008,12,17,15,48,0.40
2008,12,17,15,49,0.40
2008,12,17,15,50,0.40
2008,12,17,15,51,0.40
2008,12,17,15,52,0.40
2008,12,17,15,53,0.30
2008,12,17,15,54,0.30
2008,12,17,15,55,0.30
2008,12,17,15,56,0.30
2008,12,17,15,57,0.30
2008,12,17,15,58,0.30
2008,12,17,15,59,0.30
2008,12,17,16,00,0.30
2008,12,17,16,01,0.20
2008,12,17,16,02,0.20
2008,12,17,16,03,0.20
2008,12,17,16,04,0.20
2008,12,17,16,05,0.20
2008,12,17,16,06,0.20
2008,12,17,16,07,0.20
2008,12,17,16,08,0.20
2008,12,17,16,09,0.20
2008,12,17,16,10,0.20
2008,12,17,16,11,0.20
2008,12,17,16,12,0.10
2008,12,17,16,13,0.10
2008,12,17,16,14,0.10
2008,12,17,16,15,0.10
2008,12,17,16,16,0.10
2008,12,17,16,17,0.10
2008,12,17,16,18,0.10
2008,12,17,16,19,0.10
2008,12,17,16,20,0.10
2008,12,17,16,21,0.10
2008,12,17,16,22,0.10
2008,12,17,16,23,0.10
2008,12,17,16,24,0.10
2008,12,17,16,25,0.10
2008,12,17,16,26,0.10
2008,12,17,16,27,0.10
2008,12,17,16,28,0.10
2008,12,17,16,29,0.10
2008,12,17,16,30,0.10
2008,12,17,16,31,0.10
2008,12,17,16,32,0.10
2008,12,17,16,33,0.10
2008,12,17,16,34,0.10
2008,12,17,16,35,0.10
2008,12,17,16,36,0.00
2008,12,17,16,37,-0.10
2008,12,17,16,38,-0.10
2008,12,17,16,39,-0.10
2008,12,17,16,40,-0.10
2008,12,17,16,41,-0.10
2008,12,17,16,42,-0.10
2008,12,17,16,43,-0.10
2008,12,17,16,44,-0.10
2008,12,17,16,45,-0.10
2008,12,17,16,46,-0.10
2008,12,17,16,47,-0.10
2008,12,17,16,48,-0.10
2008,12,17,16,49,-0.10
2008,12,17,16,50,-0.10
2008,12,17,16,51,-0.10
2008,12,17,16,52,-0.10
2008,12,17,16,53,-0.20
2008,12,17,16,54,-0.20
2008,12,17,16,55,-0.20
2008,12,17,16,56,-0.30
2008,12,17,16,57,-0.30
2008,12,17,16,58,-0.30
2008,12,17,16,59,-0.30
2008,12,17,17,00,-0.30
2008,12,17,17,01,-0.30
2008,12,17,17,02,-0.40
2008,12,17,17,03,-0.40
2008,12,17,17,04,-0.40
2008,12,17,17,05,-0.40
2008,12,17,17,06,-0.40
2008,12,17,17,07,-0.40
2008,12,17,17,08,-0.40
2008,12,17,17,09,-0.40
2008,12,17,17,10,-0.40
2008,12,17,17,11,-0.40
2008,12,17,17,12,-0.40
2008,12,17,17,13,-0.40
2008,12,17,17,14,-0.40
2008,12,17,17,15,-0.50
2008,12,17,17,16,-0.60
2008,12,17,17,17,-0.60
2008,12,17,17,18,-0.60
2008,12,17,17,19,-0.60
2008,12,17,17,20,-0.60
2008,12,17,17,21,-0.60
2008,12,17,17,22,-0.60
2008,12,17,17,23,-0.70
2008,12,17,17,24,-0.70
2008,12,17,17,25,-0.70
2008,12,17,17,26,-0.70
2008,12,17,17,27,-0.80
2008,12,17,17,28,-0.80
2008,12,17,17,29,-0.80
2008,12,17,17,30,-0.90
2008,12,17,17,31,-0.90
2008,12,17,17,32,-0.90
2008,12,17,17,33,-0.90
2008,12,17,17,34,-0.90
2008,12,17,17,35,-0.90
2008,12,17,17,36,-0.90
2008,12,17,17,37,-1.00
2008,12,17,17,38,-1.10
2008,12,17,17,39,-1.10
2008,12,17,17,40,-1.10
2008,12,17,17,41,-1.10
2008,12,17,17,42,-1.20
2008,12,17,17,43,-1.20
2008,12,17,17,44,-1.30
2008,12,17,17,45,-1.30
2008,12,17,17,46,-1.30
2008,12,17,17,47,-1.40
2008,12,17,17,48,-1.40
2008,12,17,17,49,-1.40
2008,12,17,17,50,-1.40
2008,12,17,17,51,-1.40
2008,12,17,17,52,-1.40
2008,12,17,17,53,-1.40
2008,12,17,17,54,-1.40
2008,12,17,17,55,-1.50
2008,12,17,17,56,-1.50
2008,12,17,17,57,-1.50
2008,12,17,17,58,-1.60
2008,12,17,17,59,-1.60
2008,12,17,18,00,-1.60
2008,12,17,18,01,-1.70
2008,12,17,18,02,-1.70
2008,12,17,18,03,-1.70
2008,12,17,18,04,-1.70
2008,12,17,18,05,-1.70
2008,12,17,18,06,-1.80
2008,12,17,18,07,-1.80
2008,12,17,18,08,-1.80
2008,12,17,18,09,-1.80
2008,12,17,18,10,-1.80
2008,12,17,18,11,-1.80
2008,12,17,18,12,-1.80
2008,12,17,18,13,-1.80
2008,12,17,18,14,-1.80
2008,12,17,18,15,-1.80
2008,12,17,18,16,-1.80
2008,12,17,18,17,-1.80
2008,12,17,18,18,-1.80
2008,12,17,18,19,-1.80
2008,12,17,18,20,-1.80
2008,12,17,18,21,-1.80
2008,12,17,18,22,-1.80
2008,12,17,18,23,-1.80
2008,12,17,18,24,-1.80
2008,12,17,18,25,-1.80
2008,12,17,18,26,-1.90
2008,12,17,18,27,-1.90
2008,12,17,18,28,-1.90
2008,12,17,18,29,-1.90
2008,12,17,18,30,-1.90
2008,12,17,18,31,-1.90
2008,12,17,18,32,-1.90
2008,12,17,18,33,-1.90
2008,12,17,18,34,-1.90
2008,12,17,18,35,-2.00
2008,12,17,18,36,-2.00
2008,12,17,18,37,-2.00
2008,12,17,18,38,-2.00
2008,12,17,18,39,-2.10
2008,12,17,18,40,-2.10
2008,12,17,18,41,-2.20
2008,12,17,18,42,-2.20
2008,12,17,18,43,-2.30
2008,12,17,18,44,-2.30
2008,12,17,18,45,-2.30
2008,12,17,18,46,-2.30
2008,12,17,18,47,-2.40
2008,12,17,18,48,-2.40
2008,12,17,18,49,-2.40
2008,12,17,18,50,-2.40
2008,12,17,18,51,-2.40
2008,12,17,18,52,-2.40
2008,12,17,18,53,-2.40
2008,12,17,18,54,-2.40
2008,12,17,18,55,-2.40
2008,12,17,18,56,-2.40
2008,12,17,18,57,-2.40
2008,12,17,18,58,-2.30
2008,12,17,18,59,-2.30
2008,12,17,19,00,-2.30
2008,12,17,19,01,-2.30
2008,12,17,19,02,-2.30
2008,12,17,19,03,-2.30
2008,12,17,19,04,-2.30
2008,12,17,19,05,-2.30
2008,12,17,19,06,-2.40
2008,12,17,19,07,-2.40
2008,12,17,19,08,-2.40
2008,12,17,19,09,-2.50
2008,12,17,19,10,-2.50
2008,12,17,19,11,-2.60
2008,12,17,19,12,-2.60
2008,12,17,19,13,-2.70
2008,12,17,19,14,-2.70
2008,12,17,19,15,-2.70
2008,12,17,19,16,-2.80
2008,12,17,19,17,-2.80
2008,12,17,19,18,-2.80
2008,12,17,19,19,-2.80
2008,12,17,19,20,-2.80
2008,12,17,19,21,-2.80
2008,12,17,19,22,-2.80
2008,12,17,19,23,-2.80
2008,12,17,19,24,-2.80
2008,12,17,19,25,-2.80
2008,12,17,19,26,-2.80
2008,12,17,19,27,-2.80
2008,12,17,19,28,-2.80
2008,12,17,19,29,-2.90
2008,12,17,19,30,-2.90
2008,12,17,19,31,-2.90
2008,12,17,19,32,-3.00
2008,12,17,19,33,-3.00
2008,12,17,19,34,-3.00
2008,12,17,19,35,-3.10
2008,12,17,19,36,-3.10
2008,12,17,19,37,-3.10
2008,12,17,19,38,-3.10
2008,12,17,19,39,-3.10
2008,12,17,19,40,-3.10
2008,12,17,19,41,-3.00
2008,12,17,19,42,-3.00
2008,12,17,19,43,-3.00
2008,12,17,19,44,-3.00
2008,12,17,19,45,-3.00
2008,12,17,19,46,-3.00
2008,12,17,19,47,-3.00
2008,12,17,19,48,-3.00
2008,12,17,19,49,-3.00
2008,12,17,19,50,-3.10
2008,12,17,19,51,-3.10
2008,12,17,19,52,-3.10
2008,12,17,19,53,-3.10
2008,12,17,19,54,-3.10
2008,12,17,19,55,-3.20
2008,12,17,19,56,-3.20
2008,12,17,19,57,-3.30
2008,12,17,19,58,-3.30
2008,12,17,19,59,-3.30
2008,12,17,20,00,-3.30
2008,12,17,20,01,-3.30
2008,12,17,20,02,-3.30
2008,12,17,20,03,-3.30
2008,12,17,20,04,-3.20
2008,12,17,20,05,-3.20
2008,12,17,20,06,-3.20
2008,12,17,20,07,-3.10
2008,12,17,20,08,-3.10
2008,12,17,20,09,-3.10
2008,12,17,20,10,-3.10
2008,12,17,20,11,-3.10
2008,12,17,20,12,-3.00
2008,12,17,20,13,-3.00
2008,12,17,20,14,-3.00
2008,12,17,20,15,-3.00
2008,12,17,20,16,-3.00
2008,12,17,20,17,-3.00
2008,12,17,20,18,-3.00
2008,12,17,20,19,-3.00
2008,12,17,20,20,-3.00
2008,12,17,20,21,-3.00
2008,12,17,20,22,-3.10
2008,12,17,20,23,-3.10
2008,12,17,20,24,-3.10
2008,12,17,20,25,-3.10
2008,12,17,20,26,-3.10
2008,12,17,20,27,-3.10
2008,12,17,20,28,-3.10
2008,12,17,20,29,-3.20
2008,12,17,20,30,-3.20
2008,12,17,20,31,-3.20
2008,12,17,20,32,-3.20
2008,12,17,20,33,-3.30
2008,12,17,20,34,-3.30
2008,12,17,20,35,-3.30
2008,12,17,20,36,-3.30
2008,12,17,20,37,-3.30
2008,12,17,20,38,-3.20
2008,12,17,20,39,-3.20
2008,12,17,20,40,-3.20
2008,12,17,20,41,-3.20
2008,12,17,20,42,-3.20
2008,12,17,20,43,-3.20
2008,12,17,20,44,-3.20
2008,12,17,20,45,-3.10
2008,12,17,20,46,-3.10
2008,12,17,20,47,-3.10
2008,12,17,20,48,-3.10
2008,12,17,20,49,-3.00
2008,12,17,20,50,-3.00
2008,12,17,20,51,-2.90
2008,12,17,20,52,-2.90
2008,12,17,20,53,-2.90
2008,12,17,20,54,-2.90
2008,12,17,20,55,-2.90
2008,12,17,20,56,-2.90
2008,12,17,20,57,-2.90
2008,12,17,20,58,-2.90
2008,12,17,20,59,-2.90
2008,12,17,21,00,-2.90
2008,12,17,21,01,-2.90
2008,12,17,21,02,-3.00
2008,12,17,21,03,-3.00
2008,12,17,21,04,-3.00
2008,12,17,21,05,-3.00
2008,12,17,21,06,-3.00
2008,12,17,21,07,-3.00
2008,12,17,21,08,-3.00
2008,12,17,21,09,-3.00
2008,12,17,21,10,-3.00
2008,12,17,21,11,-3.00
2008,12,17,21,12,-3.00
2008,12,17,21,13,-3.00
2008,12,17,21,14,-3.00
2008,12,17,21,15,-2.90
2008,12,17,21,16,-2.90
2008,12,17,21,17,-2.90
2008,12,17,21,18,-2.90
2008,12,17,21,19,-2.90
2008,12,17,21,20,-3.00
2008,12,17,21,21,-3.00
2008,12,17,21,22,-3.00
2008,12,17,21,23,-3.00
2008,12,17,21,24,-3.00
2008,12,17,21,25,-3.00
2008,12,17,21,26,-3.00
2008,12,17,21,27,-3.00
2008,12,17,21,28,-3.00